{"data":{"norad_id":61672,"intl_designator":"2024-193M","name":"STARLINK-32443","alt_names":[],"object_type":"PAYLOAD","status":"ACTIVE","operator":null,"country":"US","launch_date":"2024-10-26","launch_site_code":"AFETR","launch_vehicle":null,"mission":null,"orbit_class":"UNKNOWN","rcs_meters":null,"size_class":null,"mass_kg":null,"dimensions":null,"purposes":["comms"],"wikipedia_slug":null,"has_3d_model":false,"image_url":null,"decayed_at":null,"tle_current":{"epoch":"2026-05-25T03:25:38.022816Z","epoch_age_seconds":69517,"freshness":"FRESH","line1":"1 61672U 24193M   26145.14280119  .00007359  00000+0  26023-3 0  9994","line2":"2 61672  53.1588  95.7705 0001225  84.4275 275.6865 15.30212095 88235","mean_motion":15.30212095,"eccentricity":0.0001225,"inclination_deg":53.1588,"raan_deg":95.7705,"arg_perigee_deg":84.4275,"mean_anomaly_deg":275.6865,"bstar":0.00026023,"rev_number":8823,"period_min":94.10460188527,"perigee_km":474.3394249627,"apogee_km":476.01848737196,"semimajor_km":6853.3159561673,"source":"CELESTRAK","updated_at":"2026-05-25T13:38:19.435231Z"}}}